Content
SEND FEEDBACK

Daily
Averages
Monthly
Summary
United States of America

WALDRON, INDIANA


Home > North America > United States > Indiana
Elevation: 820 feet     Latitude: 39 27N     Longitude: 085 40W

WEATHER
 
SELECT A DAY
Number of Records: 178,132;   Date Range: 10/15/98 - 12/27/14
 
SHARE

PRINT THIS DATA

[ ← Previous Day ]
WEATHER ALMANAC - AUGUST 15, 2014
[ Next Day → ]
[ °C ]   °F
Weather ElementAverageHighLow
Temperature62.4 °F77 °F (7:53 pm)48 °F (5:53 am)
Dewpoint49.5 °F57.9 °F (1:53 am)44.1 °F (6:53 am)
Humidity66.1 %90 % (3:53 am)36 % (3:53 pm)
Barometer30.05 in30.10 in (10:53 am)30.00 in (12:53 am)
Wind Speed2.2 mph6.9 mph (11:53 am)
Weather ElementAverage
Visibility10 mi
Wind DirectionESE (105.7 °)

Weather ElementTotal
Precipitation---
Heating Degree Days2.5 (Base 65)
Growing Degree Days12.5 (Base 50)
Averaged from 23 records on August 15, 2014
WEATHER CONDITIONS BREAKOUT
WIND DIRECTION BREAKOUT
WEATHER BY HOUR - AUGUST 15, 2014
[ °C ]   °F
Local TimeTemperatureDewpointHumidityBarometerVisibilityWind DirectionWind SpeedGust SpeedPrecipitationEventsConditions
12:53 AM57.9 °F50.0 °F75 %30.05 in10.0 miNorth (360°)6.9 mphClear
1:53 AM55.9 °F48.9 °F77 %30.04 in10.0 miNorth (10°)3.5 mphClear
2:53 AM54.0 °F48.0 °F80 %30.04 in10.0 miNorth (360°)4.6 mphClear
3:53 AM50.0 °F46.0 °F86 %30.05 in10.0 miCalmClear
4:53 AM50.0 °F46.0 °F86 %30.05 in10.0 miNorth (360°)4.6 mphClear
5:53 AM48.0 °F45.0 °F89 %30.06 in10.0 miNorth (360°)3.5 mphClear
6:53 AM48.0 °F44.1 °F86 %30.07 in10.0 miCalmClear
7:53 AM48.9 °F46.0 °F90 %30.08 in10.0 miCalmClear
8:53 AM55.0 °F48.9 °F80 %30.09 in10.0 miCalmClear
10:53 AM64.9 °F48.9 °F56 %30.10 in10.0 miCalmClear
11:53 AM69.1 °F48.9 °F49 %30.10 in10.0 miVariable3.5 mphClear
12:53 PM72.0 °F51.1 °F48 %30.08 in10.0 miVariable4.6 mphClear
1:53 PM73.9 °F48.9 °F41 %30.07 in10.0 miNorth (360°)3.5 mphClear
2:53 PM75.0 °F48.0 °F38 %30.06 in10.0 miCalmClear
3:53 PM75.9 °F46.9 °F36 %30.05 in10.0 miVariable3.5 mphClear
4:53 PM77.0 °F50.0 °F39 %30.04 in10.0 miWSW (250°)4.6 mphClear
5:53 PM75.0 °F46.9 °F37 %30.02 in10.0 miCalmClear
6:53 PM71.1 °F53.1 °F53 %30.02 in10.0 miCalmClear
7:53 PM70.0 °F57.9 °F65 %30.01 in10.0 miCalmClear
8:53 PM64.0 °F55.9 °F75 %30.00 in10.0 miCalmClear
9:53 PM62.1 °F53.1 °F72 %30.01 in10.0 miSouth (190°)4.6 mphClear
10:53 PM60.1 °F52.0 °F75 %30.02 in10.0 miSouth (180°)3.5 mphClear
11:53 PM57.0 °F53.1 °F87 %30.02 in10.0 miCalmClear
Hourly data recorded from KGEZ, located miles away from Waldron, Indiana







STORIES FROM OUR PARTNERS